This is the latest recevied weather packets stored in our database for station/object K4DNM. If no packets are shown the sender has not sent any weather packets the latest 1 day(s).
| Time | Temp. | Humidity | Pressure | Rain* | Wind** | Luminosity | Snow |
|---|---|---|---|---|---|---|---|
| 1836274675 | 21.67° C | 89% | 1017.8 hPa | 0 mm | 0 m/s | 0 W/m² | - |
| 1836274375 | 21.67° C | 89% | 1017.7 hPa | 0 mm | 0.45 m/s, 0° | 0 W/m² | - |
| 1836274289 | 21.67° C | 89% | 1017.8 hPa | 0 mm | 0.45 m/s, 142° | 0 W/m² | - |
| 1836274069 | 21.67° C | 88% | 1017.7 hPa | 0 mm | 0.45 m/s, 185° | 0 W/m² | - |
| 1778048678 | 16.11° C | 84% | 1014.3 hPa | 0 mm | 0.89 m/s, 239° | 0 W/m² | - |
| 1778048434 | 16.11° C | 83% | 1014.3 hPa | 0 mm | 1.34 m/s, 203° | 0 W/m² | - |
| 1778048075 | 16.11° C | 83% | 1014.2 hPa | 0 mm | 1.34 m/s, 202° | 0 W/m² | - |
| 1778047775 | 16.11° C | 83% | 1014.2 hPa | 0 mm | 0.89 m/s, 202° | 0 W/m² | - |
| 1778047475 | 16.11° C | 83% | 1014.2 hPa | 0 mm | 0.89 m/s, 186° | 0 W/m² | - |
| 1778047174 | 16.67° C | 83% | 1014.3 hPa | 0 mm | 0.89 m/s, 229° | 0 W/m² | - |
| 1778046875 | 16.67° C | 82% | 1014.3 hPa | 0 mm | 0.89 m/s, 197° | 0 W/m² | - |
| 1778046576 | 16.67° C | 81% | 1014.4 hPa | 0 mm | 0.89 m/s, 235° | 0 W/m² | - |
| 1778046275 | 16.67° C | 80% | 1014.5 hPa | 0 mm | 0.89 m/s, 57° | 0 W/m² | - |
| 1778045976 | 17.22° C | 80% | 1014.5 hPa | 0 mm | 0.89 m/s, 238° | 0 W/m² | - |
| 1778045676 | 17.22° C | 80% | 1014.5 hPa | 0 mm | 0.89 m/s, 210° | 0 W/m² | - |
| 1778045376 | 17.22° C | 79% | 1014.5 hPa | 0 mm | 0.89 m/s, 191° | 0 W/m² | - |
| 1778045076 | 17.22° C | 79% | 1014.4 hPa | 0 mm | 1.34 m/s, 191° | 0 W/m² | - |
| 1778044773 | 17.22° C | 78% | 1014.6 hPa | 0 mm | 0.89 m/s, 225° | 0 W/m² | - |
| 1778044472 | 17.22° C | 78% | 1014.7 hPa | 0 mm | 1.34 m/s, 200° | 0 W/m² | - |
| 1778044172 | 17.78° C | 78% | 1014.8 hPa | 0 mm | 1.34 m/s, 157° | 0 W/m² | - |
| 1778043885 | 17.78° C | 78% | 1014.9 hPa | 0 mm | 1.34 m/s, 169° | 0 W/m² | - |
| 1778043574 | 17.78° C | 78% | 1014.9 hPa | 0 mm | 1.34 m/s, 209° | 0 W/m² | - |
| 1778043271 | 17.78° C | 78% | 1014.9 hPa | 0 mm | 1.34 m/s, 162° | 0 W/m² | - |
| 1778043033 | 17.78° C | 77% | 1014.9 hPa | 0 mm | 1.34 m/s, 200° | 0 W/m² | - |
| 1778042673 | 17.78° C | 77% | 1015 hPa | 0 mm | 1.34 m/s, 168° | 0 W/m² | - |
* Rain latest hour (hover to see other rain measurements)
** Current wind speed in m/s (hover to see current wind gust speed)